www.pogodaiklimat.ru

Погода и климат >> Архив погоды >> Антарктида >> Mawson


ПОГОДА в Mawson

  • Прогноз погоды в Mawson
  • Монитор погоды в Mawson
  • Климат города

АРХИВ ПОГОДЫ в Mawson

Время (UTC), дата Ветер
(напр.,м/с)
 
Видим.   Явления Облачность Т
(С)
Тd
(С)
f
(%)
Тe
(С)
Тes
(С)
Комфортность P
(гПа)
Po
(гПа)
Тmin
(С)
Tmax
(С)
R
(мм)
R24
(мм)
S
(см)
06 15.09 ЮВ 17 5000 м метель 9/9 1000 м
[Sc]
-15.7 -20.2 68 -31 -31 опасность
обморожения
987.7 985.6
09 15.09 ЮВ 16 20 км позёмок {метель} 9/9 1000 м
[Sc]
-14.4 -19.9 63 -29 -29 988.4 986.3
12 15.09 ЮВ 17 20 км метель 9/9 1000 м
[Sc]
-14.8 -19.7 66 -30 -30 988.5 986.4
15 15.09 ЮВ 20 н/о н/о -15.8 -20.2 69 -32 -32 опасность
обморожения
988.1 986.0 -14.0
18 15.09 ЮВ 20 н/о н/о -15.7 -20.9 64 -31 -31 опасность
обморожения
987.6 985.5
21 15.09 ЮВ 20 н/о н/о -16.0 -20.9 66 -32 -32 опасность
обморожения
986.0 983.9
00 16.09 ЮВ 22 н/о н/о -15.2 -19.6 69 -31 -31 опасность
обморожения
982.8 980.7
03 16.09 ЮВ 21 10 км метель 9/9 1000 м
[Sc]
-15.5 -20.4 66 -31 -31 опасность
обморожения
982.6 980.5 -20.5
06 16.09 ЮВ 18 20 км позёмок {метель} 9/9 1000 м
[Sc]
-14.2 -19.5 64 -29 -29 982.0 979.9
09 16.09 ЮВ 20 1000 м метель 9/9 1000 м
[Sc]
-13.5 -16.6 77 -28 -28 980.8 978.7
12 16.09 ЮВ 20 500 м метель 9/9 1500 м
[Sc]
-13.3 -16.0 80 -28 -28 979.9 977.8
15 16.09 ЮВ 19 н/о н/о -13.3 -16.0 80 -28 -28 980.0 977.9 -13.1
18 16.09 ЮВ 13 н/о н/о -13.1 -18.1 66 -26 -26 980.9 978.8
21 16.09 ЮВ 15 н/о н/о -13.5 -17.8 70 -27 -27 980.0 977.9
00 17.09 ЮВ 20 н/о н/о -11.8 -16.5 68 -26 -26 978.4 976.3
03 17.09 ЮВ 20 30 км 10/0 2000 м
[Ac As]
-12.7 -22.4 44 -27 -27 977.5 975.5 -15.8
06 17.09 Ю 26 2500 м позёмок 9/0
[Ac As]
-13.5 -18.8 64 -30 -30 972.4 970.4
09 17.09 Ю 30 800 м метель 9/1 1000 м
[Sc Ac As Ci sp]
-12.2 -17.6 64 -29 -29 968.8 966.8
12 17.09 Ю 31 2500 м позёмок {метель} 9/1 600 м
[St Ac As Cs]
-11.3 -19.4 51 -28 -28 967.3 965.3
15 17.09 Ю 29 н/о н/о -13.4 -17.0 74 -30 -30 968.0 966.0 -10.2
18 17.09 Ю 28 н/о н/о -13.6 -17.2 74 -31 -31 опасность
обморожения
968.4 966.4
21 17.09 Ю 27 н/о н/о -12.5 -19.4 56 -29 -29 970.2 968.2
00 18.09 Ю 23 н/о н/о -12.2 -18.9 57 -27 -27 973.6 971.6
03 18.09 Ю 12 25 км 10/10 1500 м
[Sc]
-11.7 -20.9 46 -24 -24 977.3 975.3 -15.0
06 18.09 ЮВ 8 20 км осадки на расстоянии 10/10 1500 м
[Sc]
-11.1 -19.4 50 -21 -21 981.1 979.0
09 18.09 ЮВ 13 30 км 9/4 1500 м
[Sc Ac trans Ci fib]
-11.6 -19.4 52 -24 -24 983.6 981.5
12 18.09 ЮВ 13 30 км 9/8 1500 м
[Sc Ci fib]
-11.7 -19.8 51 -24 -24 987.1 985.0
15 18.09 ЮВ 12 н/о н/о -13.9 -22.0 50 -27 -27 990.4 988.3 -8.3
18 18.09 ЮВ 11 н/о н/о -14.9 -23.0 50 -27 -27 993.3 991.2
21 18.09 ЮВ 13 н/о н/о -15.5 -25.2 43 -29 -29 996.1 994.0
00 19.09 ЮВ 11 н/о н/о -16.3 -24.7 48 -29 -29 999.0 996.9
03 19.09 ЮВ 11 30 км 6/1 1500 м
[Sc Ci fib]
-16.4 -25.5 45 -29 -29 1001.6 999.5 -16.9
06 19.09 ЮВ 9 30 км 9/1 1500 м
[Sc Cs]
-15.0 -24.5 44 -26 -26 1003.7 1001.6
09 19.09 ЮВ 8 30 км 9/1 1500 м
[Sc Cs]
-13.8 -23.4 44 -24 -24 1004.8 1002.7
12 19.09 ЮВ 8 30 км 9/1 1000 м
[Sc Cs]
-14.9 -23.7 47 -26 -26 1005.7 1003.6
15 19.09 ЮВ 8 н/о н/о -17.1 -24.8 51 -28 -28 1006.4 1004.3 -11.5
18 19.09 Ю 3 н/о н/о -16.3 -27.5 37 -23 -23 1006.9 1004.8
21 19.09 В 3 н/о н/о -17.4 -26.7 44 -24 -24 1006.5 1004.4
00 20.09 ЮВ 9 н/о н/о -15.7 -25.4 43 -27 -27 1005.7 1003.6
03 20.09 ЮВ 7 30 км 9/1 1500 м
[Sc Ac trans Cs]
-15.0 -25.8 39 -25 -25 1005.1 1003.0 -19.3
06 20.09 СВ 1 30 км 10/0
[Ac trans Cs]
-15.7 -24.2 48 -18 -16 1004.6 1002.5
09 20.09 С 3 30 км 10/0 2000 м
[Ac trans Cs]
-13.6 -23.2 44 -20 -18 1002.5 1000.4
12 20.09 ЮЗ 3 30 км 9/0 2000 м
[Ac As Ci fib]
-14.2 -23.2 46 -20 -20 1001.4 999.3
15 20.09 ЮЗ 2 н/о н/о -12.0 -21.2 46 -17 -17 999.8 997.7 -11.7
18 20.09 ЮВ 2 н/о н/о -11.1 -21.4 42 -23 -23 997.8 995.7
21 20.09 В 4 н/о н/о -11.7 -21.5 44 -19 -19 997.5 995.4
00 21.09 С 8 н/о н/о -12.5 -21.4 47 -22 -22 995.4 993.3
03 21.09 С 6 30 км 9/1 1000 м
[St As trans]
-10.9 -22.1 39 -19 -19 994.5 992.4 -16.8
06 21.09 СЗ 8 30 км 8/0
[Ac lent Cs]
-9.4 -20.2 41 -19 -18 992.8 990.7
09 21.09 ЮВ 16 30 км 9/0
[Ac trans Cs]
-8.2 -20.6 36 -20 -20 990.5 988.4
12 21.09 В 8 30 км 8/0
[Cs]
-10.1 -19.5 46 -19 -19 991.3 989.2
15 21.09 ЮВ 12 н/о н/о -11.0 -22.8 37 -22 -22 989.3 987.2 -7.0
18 21.09 ЮВ 17 н/о н/о -11.5 -22.6 39 -25 -25 987.2 985.1
21 21.09 ЮВ 15 н/о н/о -13.2 -22.1 47 -27 -27 987.4 985.3
00 22.09 ЮВ 16 н/о н/о -14.5 -21.5 55 -29 -29 985.2 983.1
03 22.09 ЮВ 15 30 км позёмок 3/0
[Ci fib]
-15.4 -22.0 57 -30 -30 984.4 982.3 -14.7

 

Местоположение метеостанции Mawson (Антарктида): широта -67.60 долгота 62.87 высота над уровнем моря 16 м.

В архиве по умолчанию представлена погода в Mawson за последнюю неделю. Архивные данные за месяц целиком и за предыдущие месяцы, начиная с января 2011 года, Вы можете получить, выбрав интересующий диапазон дат из раскрывающегося списка и нажав кнопку "Ввод!".


*Определитесь, кто Вы:
робот инопланетянин человек

Внимание! Время в таблицах - всемирное. Для получения местного времени необходимо прибавить поправку, которая в Mawson равна 0 ч.

Смотрите также архив погоды в соседних городах и на ближайших метеорологических станциях:

Погода в Amery Ice Shelf (Антарктида) (459 км)
Погода в Druzhnaya-4 (Антарктида) (497 км)
Погода в Bharati (Антарктида) (578 км)
Погода в Zhongshan (Антарктида) (583 км)
Погода в Progress (Антарктида) (584 км)
Погода в Davis (Антарктида) (634 км)
Погода в Davis (Whoop Whoop) (Антарктида) (669 км)
Погода в Molodezhnaya (Антарктида) (718 км)
Погода в Relay Station (Антарктида) (1007 км)
Погода в Dome Plateau Eagle (Антарктида) (1087 км)

Пояснения к столбцам:

Ветер - указаны скорость ветра в м/с - средняя за 10 мин, порывы в срок и между сроками (в фигурных скобках) и направление, откуда дует ветер: С - северный, СВ - северо-восточный, В - восточный, ЮВ - юго-восточный, Ю - южный, ЮЗ - юго-западный, З - западный, СЗ - северо-западный.
Видимость - горизонтальная дальность видимости в метрах или километрах. При видимости от 1 до 10 км при отсутствии осадков обычно наблюдается дымка, при ухудшении видимости до 1 км и менее - туман. В сухую погоду видимость может ухудшаться дымом, пылью или мглою.
Явления - указаны атмосферные явления, наблюдавшиеся в срок или в последний час перед сроком; фигурными скобками обозначены явления, наблюдавшиеся между сроками (за 1-3 часа до срока); квадратными скобками обозначены град или гололедные отложения с указанием их диаметра в мм.
Облачность - указаны через наклонную черту общая и нижняя облачность в баллах и высота нижней границы облаков в метрах; квадратными скобками обозначены формы облаков: Ci - перистые, Cs - перисто-слоистые, Cc - перисто-кучевые, Ac - высококучевые, As - высокослоистые, Sc - слоисто-кучевые, Ns - слоисто-дождевые, Cu - кучевые, Cb - кучево-дождевые. Подробнее классификацию облаков см. в Атласе облаков (PDF).
T - Температура воздуха - температура, измеренная на высоте 2 м над землей.
Td - Температура точки росы - температура, при понижении до которой содержащийся в воздухе водяной пар достигнет насыщения.
f - Относительная влажность воздуха - влажноcть воздуха, измеренная на высоте 2 м над землей.
Te - Эффективная температура - температура, которую ощущает одетый по сезону человек в тени. Характеристика душности погоды. При расчете учитывается влияние влажности воздуха и скорости ветра на теплоощущения человека.
Tes - Эффективная температура на солнце - температура, которую ощущает человек, с поправкой на солнечный нагрев. Характеристика знойности погоды. Зависит от высоты солнца над горизонтом, облачности и скорости ветра. Ночью, в пасмурную погоду, а также при ветре 12 м/с и более поправка равна нулю.
P - Атмосферное давление - приведенное к уровню моря атмосферное давление.
Po - Атмосферное давление - измеренное на уровне метеостанции атмосферное давление.
Tmin - Минимальная температура - минимум температуры воздуха на высоте 2 м над землей.
Tmax - Максимальная температура - максимум температуры воздуха на высоте 2 м над землей.
R - Количество осадков - Количество выпавших осадков за период времени, мм. При наведении курсора мыши на число - период времени, за который выпало указанное количество осадков.
R24 - Количество осадков - Количество выпавших осадков за 24 часа, мм.
S - Снежный покров - Высота снежного покрова, см. При наведении курсора мыши на число - состояние снежного покрова и степень покрытия местности в баллах.